Location: Danville Conservation Area
(38.8674°N, 91.5143°W)
Time: 09:31:42
(UTC-06:00)

X-37B - Visible Passes

Search period start: 28 November 2021 00:00
Search period end: 08 December 2021 00:00
Orbit: 330 x 341 km, 45.0° (Epoch: 20 November)

Date Brightness Start Highest point End Pass type
(mag) Time Alt. Az. Time Alt. Az. Time Alt. Az.
04 Dec 2.5 17:53:05 10° S 17:54:44 14° SE 17:55:10 14° SE visible
05 Dec 1.0 18:12:15 10° SW 18:14:56 39° SSE 18:14:56 39° SSE visible
06 Dec 1.4 18:32:29 10° WSW 18:34:38 45° W 18:34:38 45° W visible
07 Dec 1.2 17:17:41 10° SW 17:20:23 38° SSE 17:23:02 10° ENE visible
07 Dec 3.1 18:53:12 10° W 18:54:16 19° WNW 18:54:16 19° WNW visible
